Weather History for Franklin, PA

Change the Weather History Date:

Tuesday, February 25, 2014

  Actual Average Record
Temperature  
Mean Temperature 16 °F -  
Max Temperature 21 °F 40 °F 64 °F (2001)
Min Temperature 12 °F 21 °F -9 °F (1963)
Degree Days  
Heating Degree Days 48    
Moisture  
Dew Point 9 °F    
Average Humidity 70    
Maximum Humidity 86    
Minimum Humidity 58    
Precipitation  
Precipitation 0.00 in - - ()
Sea Level Pressure  
Sea Level Pressure 30.00 in    
Wind  
Wind Speed 9 mph (West)    
Max Wind Speed 16 mph    
Max Gust Speed 22 mph    
Visibility 8 miles    
Events      
Averages and records for this station are not official NWS values.
T = Trace of Precipitation, MM = Missing Value Source: NWS Daily Summary

Daily Weather History Graph

Daily Weather History Graph

Search for Another Location

Airport:

Trip Planner

Search our weather history database for the weather conditions in past years. The results will help you decide how hot, cold, wet, or windy it might be!

Date:

Astronomy

Feb. 25, 2014 Rise Set
Actual Time 7:00 AM EST 6:05 PM EST
Civil Twilight 6:32 AM EST 6:33 PM EST
Nautical Twilight 6:00 AM EST 7:05 PM EST
Astronomical Twilight 5:28 AM EST 7:37 PM EST
Moon 3:55 AM EST (2/25) 2:07 PM EST (2/25)
Length of Visible Light 12h 01m
Length of Day
11h 05m
Waning Crescent, 18% of the Moon is Illuminated
Feb 25
Waning Crescent
Mar 1
New
Mar 8
First Quarter
Mar 16
Full
Mar 23
Last Quarter

Hourly Weather History & Observations

Time (EST) Temp. Windchill Dew Point Humidity Pressure Visibility Wind Dir Wind Speed Gust Speed Precip Events Conditions
12:15 AM 19.4 °F 7.2 °F 6.8 °F 58% 30.04 in 10.0 mi WSW 11.5 mph - N/A   Overcast
12:35 AM 19.4 °F 6.6 °F 8.6 °F 63% 30.04 in 10.0 mi West 12.7 mph 17.3 mph N/A   Overcast
12:55 AM 19.4 °F 8.6 °F 8.6 °F 63% 30.03 in 10.0 mi WSW 9.2 mph 17.3 mph N/A   Overcast
1:15 AM 19.4 °F 9.5 °F 8.6 °F 63% 30.03 in 10.0 mi WSW 8.1 mph 16.1 mph N/A   Overcast
1:35 AM 19.4 °F 7.9 °F 8.6 °F 63% 30.04 in 10.0 mi West 10.4 mph - N/A   Overcast
1:55 AM 19.4 °F 8.6 °F 10.4 °F 68% 30.03 in 10.0 mi West 9.2 mph - N/A   Overcast
2:15 AM 17.6 °F 6.4 °F 12.2 °F 79% 30.03 in 5.0 mi West 9.2 mph - N/A   Overcast
2:35 AM 17.6 °F 7.3 °F 12.2 °F 79% 30.02 in 10.0 mi WSW 8.1 mph - N/A   Overcast
2:55 AM 17.6 °F 7.3 °F 10.4 °F 73% 30.02 in 10.0 mi SW 8.1 mph - N/A   Overcast
3:15 AM 17.6 °F 6.4 °F 12.2 °F 79% 30.00 in 10.0 mi West 9.2 mph - N/A   Overcast
3:35 AM 17.6 °F 5.7 °F 12.2 °F 79% 30.01 in 5.0 mi WNW 10.4 mph - N/A   Overcast
3:55 AM 15.8 °F 5.1 °F 10.4 °F 79% 30.01 in 3.0 mi WNW 8.1 mph - N/A   Overcast
4:15 AM 15.8 °F 8.6 °F 10.4 °F 79% 30.01 in 10.0 mi WNW 4.6 mph - N/A   Overcast
4:35 AM 15.8 °F 8.6 °F 10.4 °F 79% 30.01 in 10.0 mi WNW 4.6 mph - N/A   Overcast
4:55 AM 15.8 °F 6.1 °F 8.6 °F 73% 30.01 in 10.0 mi WNW 6.9 mph - N/A   Overcast
5:15 AM 15.8 °F 7.2 °F 10.4 °F 79% 30.02 in 10.0 mi WNW 5.8 mph - N/A   Overcast
5:35 AM 15.8 °F 7.2 °F 10.4 °F 79% 30.02 in 2.0 mi WNW 5.8 mph - N/A   Overcast
5:55 AM 15.8 °F 7.2 °F 10.4 °F 79% 30.02 in 1.8 mi West 5.8 mph - N/A   Overcast
6:15 AM 15.8 °F 8.6 °F 12.2 °F 86% 30.01 in 2.0 mi NW 4.6 mph - N/A   Overcast
6:35 AM 15.8 °F 4.2 °F 10.4 °F 79% 30.02 in 3.0 mi NW 9.2 mph - N/A   Overcast
6:55 AM 14.0 °F 3.9 °F 8.6 °F 79% 30.02 in 3.0 mi NNW 6.9 mph - N/A   Overcast
7:15 AM 12.2 °F 6.1 °F 8.6 °F 85% 30.02 in 4.0 mi WNW 3.5 mph - N/A   Mostly Cloudy
7:35 AM 14.0 °F - 8.6 °F 79% 30.03 in 5.0 mi Calm Calm - N/A   Overcast
7:55 AM 14.0 °F 8.2 °F 8.6 °F 79% 30.03 in 4.0 mi WNW 3.5 mph - N/A   Overcast
8:15 AM 14.0 °F 6.5 °F 8.6 °F 79% 30.04 in 4.0 mi NW 4.6 mph - N/A   Overcast
8:35 AM 14.0 °F 8.2 °F 8.6 °F 79% 30.04 in 4.0 mi WNW 3.5 mph - N/A   Overcast
8:55 AM 14.0 °F 6.5 °F 8.6 °F 79% 30.05 in 2.5 mi WNW 4.6 mph - N/A   Overcast
9:15 AM 15.8 °F 6.1 °F 8.6 °F 73% 30.05 in 4.0 mi WNW 6.9 mph - N/A   Overcast
9:35 AM 15.8 °F 2.1 °F 8.6 °F 73% 30.05 in 9.0 mi West 12.7 mph - N/A   Overcast
9:55 AM 15.8 °F 4.2 °F 6.8 °F 68% 30.05 in 10.0 mi WNW 9.2 mph 18.4 mph N/A   Overcast
10:15 AM 17.6 °F 4.3 °F 8.6 °F 68% 30.05 in 10.0 mi WNW 12.7 mph 16.1 mph N/A   Mostly Cloudy
10:35 AM 17.6 °F 4.3 °F 8.6 °F 68% 30.05 in 10.0 mi West 12.7 mph 18.4 mph N/A   Overcast
10:55 AM 17.6 °F 3.7 °F 8.6 °F 68% 30.05 in 10.0 mi West 13.8 mph - N/A   Overcast
11:15 AM 19.4 °F 8.6 °F 8.6 °F 63% 30.05 in 10.0 mi West 9.2 mph - N/A   Overcast
11:35 AM 17.6 °F 3.2 °F 8.6 °F 68% 30.05 in 10.0 mi West 15.0 mph 18.4 mph N/A   Overcast
11:55 AM 19.4 °F 5.0 °F 6.8 °F 58% 30.04 in 10.0 mi West 16.1 mph 19.6 mph N/A   Mostly Cloudy
12:15 PM 19.4 °F 6.0 °F 8.6 °F 63% 30.04 in 10.0 mi West 13.8 mph - N/A   Overcast
12:35 PM 19.4 °F 5.5 °F 8.6 °F 63% 30.03 in 10.0 mi West 15.0 mph 21.9 mph N/A   Overcast
12:55 PM 19.4 °F 6.6 °F 8.6 °F 63% 30.02 in 10.0 mi West 12.7 mph 17.3 mph N/A   Overcast
1:15 PM 17.6 °F 6.4 °F 6.8 °F 63% 30.01 in 10.0 mi WNW 9.2 mph 21.9 mph N/A   Overcast
1:35 PM 19.4 °F 7.2 °F 8.6 °F 63% 30.01 in 10.0 mi West 11.5 mph - N/A   Overcast
1:55 PM 19.4 °F 7.9 °F 6.8 °F 58% 30.00 in 10.0 mi West 10.4 mph 18.4 mph N/A   Overcast
2:15 PM 19.4 °F 7.9 °F 6.8 °F 58% 30.00 in 10.0 mi West 10.4 mph - N/A   Overcast
2:35 PM 19.4 °F 7.2 °F 8.6 °F 63% 30.00 in 10.0 mi West 11.5 mph - N/A   Overcast
2:55 PM 19.4 °F 6.6 °F 8.6 °F 63% 29.99 in 10.0 mi West 12.7 mph 16.1 mph N/A   Overcast
3:15 PM 19.4 °F 7.2 °F 8.6 °F 63% 29.99 in 10.0 mi WSW 11.5 mph 16.1 mph N/A   Overcast
3:35 PM 19.4 °F 5.5 °F 8.6 °F 63% 29.99 in 10.0 mi West 15.0 mph - N/A   Overcast
3:55 PM 19.4 °F 8.6 °F 8.6 °F 63% 29.98 in 10.0 mi WSW 9.2 mph - N/A   Overcast
4:15 PM 19.4 °F 7.9 °F 8.6 °F 63% 29.97 in 10.0 mi West 10.4 mph - N/A   Overcast
4:35 PM 21.2 °F 8.9 °F 8.6 °F 58% 29.98 in 10.0 mi West 12.7 mph 18.4 mph N/A   Overcast
4:55 PM 19.4 °F 8.6 °F 10.4 °F 68% 29.97 in 10.0 mi West 9.2 mph - N/A   Overcast
5:15 PM 19.4 °F 9.5 °F 12.2 °F 74% 29.97 in 5.0 mi SW 8.1 mph - N/A   Overcast
5:35 PM 19.4 °F 9.5 °F 12.2 °F 74% 29.98 in 7.0 mi West 8.1 mph - N/A   Overcast
5:55 PM 19.4 °F 8.6 °F 10.4 °F 68% 29.97 in 10.0 mi West 9.2 mph - N/A   Overcast
6:15 PM 19.4 °F 8.6 °F 8.6 °F 63% 29.97 in 10.0 mi West 9.2 mph - N/A   Overcast
6:35 PM 19.4 °F 10.4 °F 8.6 °F 63% 29.97 in 10.0 mi West 6.9 mph - N/A   Overcast
6:55 PM 19.4 °F 9.5 °F 8.6 °F 63% 29.97 in 10.0 mi West 8.1 mph - N/A   Overcast
7:15 PM 19.4 °F 7.9 °F 8.6 °F 63% 29.97 in 10.0 mi WSW 10.4 mph - N/A   Overcast
7:35 PM 19.4 °F 8.6 °F 8.6 °F 63% 29.97 in 10.0 mi WSW 9.2 mph - N/A   Overcast
7:55 PM 19.4 °F 7.9 °F 8.6 °F 63% 29.97 in 10.0 mi WSW 10.4 mph 19.6 mph N/A   Overcast
8:15 PM 19.4 °F 8.6 °F 8.6 °F 63% 29.96 in 10.0 mi West 9.2 mph - N/A   Overcast
8:35 PM 19.4 °F 10.4 °F 8.6 °F 63% 29.95 in 10.0 mi WSW 6.9 mph - N/A   Overcast
8:55 PM 19.4 °F 11.5 °F 10.4 °F 68% 29.94 in 8.0 mi WSW 5.8 mph - N/A   Overcast
9:15 PM 17.6 °F 9.3 °F 10.4 °F 73% 29.93 in 5.0 mi SW 5.8 mph - N/A   Mostly Cloudy
9:35 PM 17.6 °F 9.3 °F 10.4 °F 73% 29.92 in 10.0 mi SSW 5.8 mph - N/A   Overcast
9:55 PM 17.6 °F 9.3 °F 10.4 °F 73% 29.92 in 10.0 mi SW 5.8 mph - N/A   Overcast
10:15 PM 17.6 °F 9.3 °F 10.4 °F 73% 29.92 in 10.0 mi SW 5.8 mph - N/A   Overcast
10:35 PM 19.4 °F 7.9 °F 12.2 °F 74% 29.91 in 5.0 mi WSW 10.4 mph - N/A   Overcast
10:55 PM 19.4 °F 10.4 °F 12.2 °F 74% 29.91 in 4.0 mi SW 6.9 mph - N/A   Overcast
11:15 PM 19.4 °F 9.5 °F 12.2 °F 74% 29.90 in 3.0 mi WSW 8.1 mph - N/A   Overcast
11:35 PM 19.4 °F 9.5 °F 14.0 °F 80% 29.90 in 3.0 mi WSW 8.1 mph - N/A   Overcast
11:55 PM 19.4 °F 9.5 °F 12.2 °F 74% 29.89 in 5.0 mi WSW 8.1 mph 16.1 mph N/A   Overcast